This demonstration page uses our WeatherBlox Daily Observations layout. Learn more.

Left ArrowRight Arrow

41.86663, -103.66717

Hourly Observations for January 18, 2020

Temp ( °F °C ) Dew Point ( °F °C ) Humidity (%) Winds ( mph kmh ) Pressure ( in mb ) Visibility ( mi km ) Precip ( " mm )
12:53 am 00:53 Clear 24 -4.4 11 -11.7 57 57 WNW 18 30 30.25 1024 10 16.0934 0 0
1:53 am 01:53 Clear 21 -6.1 12 -11.1 68 68 WNW 12 19 30.25 1024 10 16.0934 0 0
2:53 am 02:53 Mostly Clear 17 -8.3 10 -12.2 74 74 NW 6 9 30.28 1025 10 16.0934 0 0
3:53 am 03:53 Cloudy 23 -5 12 -11.1 63 63 WNW 12 19 30.29 1026 10 16.0934 0 0
4:53 am 04:53 Clear 21 -6.1 10 -12.2 62 62 WNW 8 13 30.31 1027 10 16.0934 0 0
5:53 am 05:53 Clear 19 -7.2 9 -12.8 65 65 NW 9 15 30.36 1028 10 16.0934 0 0
6:53 am 06:53 Clear 15 -9.4 8 -13.3 74 74 Calm 30.42 1030 10 16.0934 0 0
7:53 am 07:53 Sunny 16 -8.9 9 -12.8 74 74 N 5 7 30.41 1030 10 16.0934 0 0
8:53 am 08:53 Sunny 21 -6.1 12 -11.1 68 68 Calm 30.41 1030 10 16.0934 0 0
9:53 am 09:53 Sunny 29 -1.7 13 -10.6 51 51 NW 7 11 30.4 1030 10 16.0934 0 0
10:53 am 10:53 Sunny 32 0 12 -11.1 43 43 NW 12 19 30.4 1029 10 16.0934 0 0
11:53 am 11:53 Sunny 35 1.7 13 -10.6 40 40 NW 7 11 30.37 1028 10 16.0934 0 0
12:53 pm 12:53 Sunny 38 3.3 11 -11.7 33 33 WNW 16 26 30.33 1027 10 16.0934 0 0
1:53 pm 13:53 Sunny 41 5 12 -11.1 30 30 NW 15 24 30.32 1027 10 16.0934 0 0
2:53 pm 14:53 Sunny 41 5 12 -11.1 30 30 WNW 12 19 30.34 1027 10 16.0934 0 0
3:53 pm 15:53 Sunny 40 4.4 13 -10.6 33 33 WNW 12 19 30.34 1027 10 16.0934 0 0
4:53 pm 16:53 Clear 35 1.7 13 -10.6 40 40 W 10 17 30.37 1029 10 16.0934 0 0
5:53 pm 17:53 Clear 30 -1.1 14 -10 51 51 WNW 8 13 30.41 1030 10 16.0934 0 0
6:53 pm 18:53 Clear 26 -3.3 13 -10.6 57 57 WSW 3 6 30.47 1032 10 16.0934 0 0
7:53 pm 19:53 Clear 25 -3.9 12 -11.1 58 58 SW 5 7 30.48 1032 10 16.0934 0 0
8:53 pm 20:53 Clear 21 -6.1 12 -11.1 68 68 N 5 7 30.49 1033 10 16.0934 0 0
9:53 pm 21:53 Clear 20 -6.7 12 -11.1 71 71 WNW 7 11 30.48 1032 10 16.0934 0 0
10:53 pm 22:53 Clear 18 -7.8 11 -11.7 74 74 N 6 9 30.48 1032 10 16.0934 0 0
11:53 pm 23:53 Clear 16 -8.9 10 -12.2 77 77 N 7 11 30.49 1033 10 16.0934 0 0

Powered by AerisWeather